Carver, MA

2:35 AM EDT on September 29, 2016 (GMT -0400)
Plymouth Municipal

Weather History for KPYM - October, 2013

Change the Weather History Date:

Saturday, October 19, 2013

  Actual Average Record
Temperature  
Mean Temperature 50 °F -  
Max Temperature 64 °F 61 °F 79 °F (1988)
Min Temperature 37 °F 40 °F 26 °F (1974)
Degree Days  
Heating Degree Days 14    
Moisture  
Dew Point 41 °F    
Average Humidity 68    
Maximum Humidity 86    
Minimum Humidity 45    
Precipitation  
Precipitation 0.00 in - - ()
Sea Level Pressure  
Sea Level Pressure 29.92 in    
Wind  
Wind Speed 1 mph (South)    
Max Wind Speed 8 mph    
Max Gust Speed -    
Visibility 10 miles    
Events      
Averages and records for this station are not official NWS values.
T = Trace of Precipitation, MM = Missing Value Source: NWS Daily Summary

Daily Weather History Graph

Daily Weather History Graph

Search for Another Location

Airport or City:

Trip Planner

Search our weather history database for the weather conditions in past years. The results will help you decide how hot, cold, wet, or windy it might be!

Date:

Astronomy

Oct. 19, 2013 Rise Set
Actual Time 7:00 AM EDT 5:54 PM EDT
Civil Twilight 6:31 AM EDT 6:23 PM EDT
Nautical Twilight 5:59 AM EDT 6:55 PM EDT
Astronomical Twilight 5:27 AM EDT 7:27 PM EDT
Moon 6:19 PM EDT (10/19) 7:35 AM EDT (10/19)
Length of Visible Light 11h 51m
Length of Day
10h 54m
Waxing Gibbous, 99% of the Moon is Illuminated
Oct 19
Waxing Gibbous
Oct 26
Last Quarter
Nov 3
New
Nov 10
First Quarter
Nov 17
Full

Hourly Weather History & Observations

Time (EDT) Temp. Dew Point Humidity Pressure Visibility Wind Dir Wind Speed Gust Speed Precip Events Conditions
12:52 AM 43.0 °F 37.9 °F 82% 29.94 in 10.0 mi Calm Calm - N/A   Clear
1:52 AM 44.1 °F 39.0 °F 82% 29.94 in 10.0 mi Calm Calm - N/A   Clear
2:52 AM 42.1 °F 37.9 °F 85% 29.96 in 10.0 mi Calm Calm - N/A   Clear
3:52 AM 42.1 °F 37.9 °F 85% 29.96 in 10.0 mi Calm Calm - N/A   Clear
4:52 AM 39.9 °F 36.0 °F 86% 29.97 in 10.0 mi Calm Calm - N/A   Clear
5:52 AM 39.0 °F 35.1 °F 86% 29.99 in 10.0 mi Calm Calm - N/A   Clear
6:52 AM 37.9 °F 34.0 °F 86% 29.98 in 10.0 mi Calm Calm - N/A   Clear
7:52 AM 39.0 °F 35.1 °F 86% 29.98 in 10.0 mi Calm Calm - N/A   Clear
8:52 AM 48.9 °F 43.0 °F 80% 30.00 in 10.0 mi Calm Calm - N/A   Clear
9:52 AM 57.0 °F 43.0 °F 59% 30.00 in 10.0 mi Calm Calm - N/A   Clear
10:52 AM 62.1 °F 42.1 °F 48% 29.99 in 10.0 mi Variable 4.6 mph - N/A   Clear
11:52 AM 63.0 °F 41.0 °F 45% 29.97 in 10.0 mi SSW 6.9 mph - N/A   Clear
12:52 PM 63.0 °F 42.1 °F 46% 29.95 in 10.0 mi SSE 5.8 mph - N/A   Clear
1:52 PM 63.0 °F 42.1 °F 46% 29.92 in 10.0 mi SW 5.8 mph - N/A   Clear
2:52 PM 64.0 °F 42.1 °F 45% 29.91 in 10.0 mi SSW 6.9 mph - N/A   Clear
3:52 PM 62.1 °F 43.0 °F 50% 29.90 in 10.0 mi South 8.1 mph - N/A   Clear
4:52 PM 60.1 °F 45.0 °F 57% 29.88 in 10.0 mi Calm Calm - N/A   Clear
5:52 PM 57.9 °F 46.0 °F 65% 29.88 in 10.0 mi Calm Calm - N/A   Clear
6:52 PM 55.0 °F 46.0 °F 72% 29.85 in 10.0 mi SE 4.6 mph - N/A   Clear
7:52 PM 57.0 °F 43.0 °F 59% 29.84 in 10.0 mi Variable 3.5 mph - N/A   Mostly Cloudy
8:52 PM 57.0 °F 44.1 °F 62% 29.83 in 10.0 mi Calm Calm - N/A   Overcast
9:52 PM 55.9 °F 45.0 °F 67% 29.83 in 10.0 mi Calm Calm - N/A   Overcast
10:52 PM 54.0 °F 46.9 °F 77% 29.79 in 10.0 mi SSE 3.5 mph - 0.00 in   Partly Cloudy
11:52 PM 54.0 °F 48.0 °F 80% 29.78 in 10.0 mi Calm Calm - N/A   Scattered Clouds